sat.trackr.live / text

‹ back to catalog

STARLINK-31446

NORAD 59315 · 2024-056V

PAYLOAD ACTIVE UNKNOWN

§ Identity

Operator
Country
US
Launch date
2024-03-24
Launch site
AFETR
Launch vehicle
Mass (kg)
RCS (m²)

Purposes: comms

External: N2YO · Heavens-Above · Gunter

§ Orbital elements

Epoch: 2026-05-25T00:51:09.075744Z

Period
94.27 min
Inclination
43.0080°
Eccentricity
0.0003466
Mean motion
15.27535929 rev/d
Perigee alt
480.8 km
Apogee alt
485.6 km
Semi-major
6,861.3 km
B*
-1.2542e-4
RAAN
159.2718°
Arg perigee
270.7748°
Mean anomaly
89.2706°
Rev number
12,283

§ Raw data

STARLINK-314461 59315U 24056V   26145.03552171 -.00003709  00000+0 -12542-3 0  99992 59315  43.0080 159.2718 0003466 270.7748  89.2706 15.27535929122833

JSON: /api/v1/satellites/59315 · /tle

For live sub-satellite position, see the globe view (requires WebGL).

§ Visibility from observer

Set your observer location to see the next 7 days of passes ≥ 10°. The values pass through the URL so the page stays shareable.

No JS? Fill the form by hand. The geolocation button needs JavaScript.